GIOVE-A 1 28922U 05051A 10066.06764271 -.00000024 +00000-0 +10000-3 0 06572 2 28922 056.0888 150.4692 0009265 346.4707 013.5415 01.69474719026027 GIOVE-B 1 32781U 08020A 10066.77958893 -.00000015 +00000-0 +10000-3 0 02826 2 32781 055.9304 185.1932 0018766 213.3436 146.5119 01.70950098011635